User: anonymous   Login
Location: Unspecified
(0.0000°N, 0.0000°E)
Time: 16:30:34
(UTC+00:00)
Language:

OBJECT X - Orbit

View from above orbital plane
View from above orbital plane
View from above satellite
View from above satellite

Ground track
Ground track

The orbit data is extracted from the following two-line orbital elements,

1 43897U 18111X   21334.12455375  .00001069  00000-0  45193-4 0  9990
2 43897  97.2086 221.7274 0023991  74.8014  64.5226 15.25089379162843
Epoch (UTC): 30 November 2021 02:59:21
Eccentricity: 0.0023991
inclination: 97.2086°
perigee height: 474 km
apogee height: 507 km
right ascension of ascending node: 221.7274°
argument of perigee: 74.8014°
revolutions per day: 15.25089379
mean anomaly at epoch: 64.5226°
orbit number at epoch: 16284

The dashed part of the orbit path shows where the satellite is in the earth's shadow,  

DLR